View from above orbital plane
|
View from above satellite
|
Ground track
|
The orbit data is extracted from the following two-line orbital elements,
1 45U 60007A 21027.79423423 -.00000018 00000-0 22347-4 0 9990
2 45 66.6945 149.6723 0252202 153.8470 207.5630 14.33704095154863
Epoch (UTC): | 27 January 2021 19:03:41 |
Eccentricity: | 0.0252202 |
inclination: | 66.6945° |
perigee height: | 599 km |
apogee height: | 960 km |
right ascension of ascending node: | 149.6723° |
argument of perigee: | 153.8470° |
revolutions per day: | 14.33704095 |
mean anomaly at epoch: | 207.5630° |
orbit number at epoch: | 15486 |
The dashed part of the orbit path shows where the satellite is in the earth's shadow,
|
|